Location: Baix
(44.7118°N, 4.7648°E)
Time: 01:15:53
(UTC+00:00)

NOSS 3-1 (A) - Pass Details

Date: 07 August 2020
Orbit: 747 x 1465 km, 63.4° (Epoch: 17 September)

Event Time Altitude Azimuth Distance (km) Brightness Sun altitude
Exits shadow 03:00:12 19° 202° (SSW) 1,832 4.4 -14.8°
Maximum altitude 03:04:07 69° 123° (ESE) 921 3.4 -14.3°
Drops below altitude 10° 03:10:19 10° 41° (NE) 2,725 7.3 -13.5°
Sets 03:13:08 0° 39° (NE) 3,789 8.4 -13.1°
